Weather History for Bryce Canyon, UT

Change the Weather History Date:

Thursday, January 31, 2013

  Actual Average Record
Temperature  
Mean Temperature 24 °F -  
Max Temperature 39 °F 35 °F 55 °F (2003)
Min Temperature 9 °F 9 °F -19 °F (1985)
Degree Days  
Heating Degree Days 41    
Moisture  
Dew Point 14 °F    
Average Humidity 76    
Maximum Humidity 96    
Minimum Humidity 41    
Precipitation  
Precipitation 0.00 in - - ()
Sea Level Pressure  
Sea Level Pressure 30.31 in    
Wind  
Wind Speed 8 mph (NW)    
Max Wind Speed 16 mph    
Max Gust Speed -    
Visibility 10 miles    
Events      
Averages and records for this station are not official NWS values.
T = Trace of Precipitation, MM = Missing Value Source: NWS Daily Summary

Daily Weather History Graph

Daily Weather History Graph

Search for Another Location

Airport:

Trip Planner

Search our weather history database for the weather conditions in past years. The results will help you decide how hot, cold, wet, or windy it might be!

Date:

Astronomy

Jan. 31, 2013 Rise Set
Actual Time 7:33 AM MST 5:51 PM MST
Civil Twilight 7:05 AM MST 6:19 PM MST
Nautical Twilight 6:33 AM MST 6:50 PM MST
Astronomical Twilight 6:03 AM MST 7:21 PM MST
Moon 10:50 PM MST (1/31) 9:40 AM MST (1/31)
Length of Visible Light 11h 13m
Length of Day
10h 18m
Waning Gibbous, 79% of the Moon is Illuminated
Jan 31
Waning Gibbous
Feb 3
Last Quarter
Feb 10
New
Feb 17
First Quarter
Feb 25
Full

Hourly Weather History & Observations

Time (MST) Temp. Windchill Dew Point Humidity Pressure Visibility Wind Dir Wind Speed Gust Speed Precip Events Conditions
12:53 AM 19.9 °F 11.1 °F 15.1 °F 81% 30.23 in 10.0 mi North 6.9 mph - N/A   Clear
1:22 AM 23.0 °F 10.1 °F 19.4 °F 86% 30.25 in 10.0 mi WNW 15.0 mph - N/A   Clear
1:53 AM 21.0 °F 9.3 °F 16.0 °F 81% 30.21 in 10.0 mi North 11.5 mph - N/A   Clear
2:53 AM 23.0 °F 14.7 °F 18.0 °F 81% 30.22 in 10.0 mi NW 6.9 mph - N/A   Clear
3:53 AM 19.9 °F 9.3 °F 17.1 °F 89% 30.25 in 10.0 mi WNW 9.2 mph - N/A   Clear
4:53 AM 9.0 °F -2.2 °F 8.1 °F 96% 30.32 in 10.0 mi West 6.9 mph - N/A   Clear
5:53 AM 9.0 °F -4.2 °F 7.0 °F 92% 30.34 in 10.0 mi West 9.2 mph - N/A   Clear
6:53 AM 10.0 °F -6.5 °F 8.1 °F 92% 30.35 in 10.0 mi West 15.0 mph - N/A   Clear
7:53 AM 12.9 °F -2.2 °F 9.0 °F 84% 30.38 in 10.0 mi NNW 13.8 mph - N/A   Clear
8:53 AM 24.1 °F 11.0 °F 16.0 °F 71% 30.33 in 10.0 mi NNW 16.1 mph - N/A   Clear
9:53 AM 24.1 °F 13.7 °F 16.0 °F 71% 30.33 in 10.0 mi North 10.4 mph - N/A   Clear
10:53 AM 30.0 °F 22.4 °F 19.9 °F 66% 30.30 in 10.0 mi North 8.1 mph - N/A   Clear
11:53 AM 33.1 °F 24.4 °F 21.0 °F 61% 30.27 in 10.0 mi North 11.5 mph - N/A   Clear
12:53 PM 35.1 °F 27.9 °F 19.0 °F 52% 30.26 in 10.0 mi North 9.2 mph - N/A   Clear
1:53 PM 37.0 °F 32.4 °F 19.9 °F 50% 30.23 in 10.0 mi North 5.8 mph - N/A   Clear
2:53 PM 35.1 °F - 19.0 °F 52% 30.24 in 10.0 mi Calm Calm - N/A   Clear
3:53 PM 39.0 °F - 17.1 °F 41% 30.23 in 10.0 mi Calm Calm - N/A   Clear
4:53 PM 33.1 °F - 19.9 °F 59% 30.32 in 10.0 mi Calm Calm - N/A   Clear
5:53 PM 19.0 °F 12.3 °F 14.0 °F 81% 30.39 in 10.0 mi West 4.6 mph - N/A   Clear
6:53 PM 14.0 °F - 10.0 °F 84% 30.42 in 10.0 mi Calm Calm - N/A   Clear
7:53 PM 10.0 °F 3.6 °F 7.0 °F 87% 30.42 in 10.0 mi WSW 3.5 mph - N/A   Clear
8:53 PM 10.0 °F 1.8 °F 6.1 °F 84% 30.38 in 10.0 mi SW 4.6 mph - N/A   Clear
9:53 PM 12.0 °F 0.5 °F 9.0 °F 88% 30.37 in 10.0 mi West 8.1 mph - N/A   Clear
10:53 PM 15.1 °F 7.7 °F 10.9 °F 84% 30.31 in 10.0 mi West 4.6 mph - N/A   Clear
11:53 PM 12.9 °F 2.6 °F 9.0 °F 84% 30.31 in 10.0 mi West 6.9 mph - N/A   Clear